Location: Eymir
(36.7333°N, 29.7833°E)
Time: 18:17:13
(UTC+00:00)

Cosmos 2154 Rocket - Pass Details

Date: 14 January 2026
Orbit: 965 x 997 km, 82.9° (Epoch: 17 February)

Event Time Altitude Azimuth Distance (km) Brightness Sun altitude
Rises 04:04:54 0° 196° (SSW) 3,697 7.0 -13.5°
Reaches altitude 10° 04:07:27 10° 200° (SSW) 2,749 6.3 -13.0°
Maximum altitude 04:13:40 59° 279° (W) 1,133 4.1 -11.8°
Drops below altitude 10° 04:19:53 10° 358° (N) 2,747 6.2 -10.6°
Sets 04:22:27 0° 3° (N) 3,694 6.9 -10.1°
